Flag for Germany Weather past 2 weeks in Rathenow, Brandenburg, Germany

Now
59 °F

Overcast.


Feels Like: 59 °F
Forecast: 42 / 67 °F
Wind: 5 mph from North

Location: Neuruppin

Current Time: May 23, 2015 at 6:41:43 PM

Latest Report: May 23, 2015 at 6:00 PM


Visibility: 6 mi

Pressure: 30.10 "Hg

Humidity: 72%

Dew point: 50 °F

Location of RathenowLocation

Historic Weather in Rathenow — Graph

°F

Rathenow temperature yesterday

Maximum temperature yesterday: 67 °F (at 5:00 PM)
Minimum temperature yesterday: 40 °F (at 6:00 AM)
Average temperature yesterday: 55 °F

Past Weeks' High & Low Weather Summary

 TemperatureHumidityPressure
High77 °F (May 12, 4:00 PM)99% (May 11, 4:00 AM)30.39 "Hg (May 11, 4:00 AM)
Low38 °F (May 16, 6:00 AM)34% (May 22, 4:00 PM)29.58 "Hg (May 19, 3:00 AM)
Average54 °F70%30.04 "Hg
* Reported May 8 4:00 PM — May 23 4:00 PM, Rathenow, Weather by CustomWeather, © 2015

Note: Actual official high and low records may vary slightly from our data, if they occured in-between our weather recording intervals... More about our weather records

Advertising

Rathenow weather history for previous 24 hours

 ConditionsComfort  
Time TempWeatherWind HumidityBarometerVisibility
4:00 PM
Sat, May 23
61 °FOvercast.6 mph68%30.09 "Hg6 mi
3:00 PM63 °FOvercast.6 mph64%30.09 "Hg7 mi
2:00 PM64 °FOvercast.1 mph68%30.09 "Hg6 mi
1:00 PM65 °FOvercast.3 mph49%30.09 "Hg6 mi
12:00 PM67 °FScattered clouds.5 mph50%30.10 "Hg6 mi
10:00 AM60 °FOvercast.2 mph69%30.12 "Hg6 mi
9:00 AM58 °FOvercast.2 mph72%30.12 "Hg6 mi
8:00 AM58 °FOvercast.1 mph75%30.11 "Hg6 mi
7:00 AM55 °FOvercast.1 mph79%30.11 "Hg6 mi
5:00 AM54 °FOvercast.1 mph78%30.12 "Hg6 mi
4:00 AM55 °FOvercast.1 mph76%30.13 "Hg6 mi
3:00 AM55 °FOvercast.1 mph73%30.14 "Hg6 mi
2:00 AM56 °FOvercast.No wind72%30.16 "Hg6 mi
1:00 AM56 °FOvercast.1 mph74%30.17 "Hg6 mi
12:00 AM56 °FOvercast.1 mph75%30.18 "Hg5 mi
11:00 PM
Fri, May 22
57 °FOvercast.No wind74%30.18 "Hg6 mi
10:00 PM58 °FOvercast.No wind63%30.19 "Hg6 mi
9:00 PM61 °FScattered clouds.1 mph56%30.18 "Hg6 mi
8:00 PM64 °FSunny.1 mph46%30.18 "Hg6 mi
7:00 PM65 °FSunny.1 mph37%30.19 "Hg6 mi
6:00 PM66 °FSunny.1 mph38%30.19 "Hg6 mi
Weather by CustomWeather, © 2015

See weather overviewHow to use our weather pages